sat.trackr.live / text

‹ back to catalog

STARLINK-2417

NORAD 48096 · 2021-027E

PAYLOAD ACTIVE UNKNOWN

§ Identity

Operator
Country
US
Launch date
2021-04-07
Launch site
AFETR
Launch vehicle
Mass (kg)
RCS (m²)

Purposes: comms

External: N2YO · Heavens-Above · Gunter

§ Orbital elements

Epoch: 2026-09-20T05:06:32.875200Z

Period
94.00 min
Inclination
53.1607°
Eccentricity
0.0000387
Mean motion
15.31995786 rev/d
Perigee alt
469.6 km
Apogee alt
470.1 km
Semi-major
6,848.0 km
B*
2.7505e-4
RAAN
340.3296°
Arg perigee
68.2090°
Mean anomaly
291.8953°
Rev number
30,231

§ Raw data

STARLINK-24171 48096U 21027E   26263.21288050  .00008258  00000+0  27505-3 0  99982 48096  53.1607 340.3296 0000387  68.2090 291.8953 15.31995786302311

JSON: /api/v1/satellites/48096 · /tle

For live sub-satellite position, see the globe view (requires WebGL).

§ Visibility from observer

Set your observer location to see the next 7 days of passes ≥ 10°. The values pass through the URL so the page stays shareable.

No JS? Fill the form by hand. The geolocation button needs JavaScript.